Cloud_Cover
3 0 0 3 0 0 0 0 0 0 4 5 58 5 3 0 0 0 0 0 5 40 55 100 60 63 100 95 100 100 100 98 100 100 100 100 100 100 100 100 100 100 75
0 0 0 0 0 0 0 0 4 5 28 5 5 5 5 0 0 0 0 0 3 11 44 14 100 100 100 99 97 100 100 98 100 100 100 94 100 100 98 70 100 100 100
44 0 1 5 5 4 3 1 5 9 86 5 5 30 4 1 4 5 71 5 9 13 52 77 100 100 100 99 100 100 94 61 34 55 94 17 40 100 100 100 100 100 100
18 0 0 0 0 0 5 5 17 21 5 16 42 31 17 6 11 5 6 24 100 60 11 55 56 67 53 55 34 62 38 82 87 67 100 100 95 100 61 90 93 17 82
100 48 5 5 5 6 78 38 81 82 84 99 92 100 80 49 17 5 8 5 14 6 8 23 6 75 92 58 34 5 5 6 36 93 100 100 99 100 100 100 100 100 96
93 25 3 0 3 5 5 15 90 100 100 84 86 97 100 44 47 67 49 5 6 5 5 5 7 7 38 99 100 40 56 10 5 17 6 7 51 100 100 100 100 100 100
100 100 100 98 41 6 5 7 5 7 52 38 35 13 49 44 92 100 92 6 29 6 5 36 11 9 20 23 62 94 26 64 39 100 93 100 72 82 85 99 90 70 97
100 100 100 100 100 95 100 66 79 45 22 30 42 66 100 100 100 84 62 41 95 49 10 42 49 24 57 35 64 77 78 98 89 90 84 100 97 100 100 92 100 92 100
100 100 100 100 100 100 100 100 100 100 100 100 100 100 100 100 94 80 100 86 100 100 88 99 100 100 100 100 99 100 100 100 100 100 100 100 100 100 100 100 99 92 100
100 100 100 100 100 100 100 100 100 100 100 100 100 100 100 100 100 100 95 100 75 83 100 100 100 100 100 100 100 100 100 100 100 100 100 100 100 100 100 100 100 100 100
100 100 100 100 100 100 100 100 100 100 100 100 100 100 100 98 100 100 100 100 100 96 100 100 100 100 100 100 100 100 100 100 100 100 100 100 100 100 97 100 100 100 100
100 96 100 100 100 100 100 100 100 100 100 100 100 100 100 100 100 100 100 100 100 100 100 100 100 100 100 100 100 100 87 93 100 100 100 100 100 100 100 100 100 100 100
100 100 100 100 100 100 100 100 100 100 100 100 100 100 100 100 100 100 100 100 100 97 100 100 100 100 100 100 100 100 100 100 100 100 100 100 100 100 100 99 98 94 100
100 100 100 100 100 100 100 100 100 100 100 100 100 100 100 100 100 100 100 100 100 91 80 96 99 100 100 93 58 96 45 23 29 7 87 100 100 99 28 46 58 43 59
100 100 100 100 100 100 100 100 100 100 100 100 100 100 100 100 100 100 100 100 100 100 100 100 100 100 100 100 100 98 59 94 11 89 95 81 56 30 14 18 62 54 74
100 100 100 100 100 100 100 100 100 100 100 100 100 100 100 100 100 100 100 100 98 100 100 75 87 98 73 94 47 66 76 17 10 50 34 5 5 9 5 25 22 63 70
100 100 100 100 100 100 100 100 100 100 100 100 100 100 100 100 100 100 100 100 100 100 100 100 100 100 100 100 94 86 27 34 97 12 6 92 17 72 15 14 97 99 100
100 100 100 100 100 100 100 100 100 100 100 100 100 100 100 100 100 100 100 100 100 100 100 100 100 99 100 100 100 92 98 84 86 73 5 25 33 76 91 60 43 16 96
99 100 100 100 100 98 100 100 100 100 100 100 100 100 100 100 100 100 100 100 100 100 100 88 78 95 59 100 100 99 100 95 70 28 52 43 53 5 0 5 0 2 5
98 100 100 100 100 100 100 100 100 100 100 100 100 99 90 100 100 100 100 100 100 100 100 100 100 100 100 99 100 100 91 97 57 60 100 58 14 4 5 3 3 0 0
100 49 79 100 97 100 100 100 98 100 100 100 100 100 100 100 100 100 100 100 96 98 92 100 100 97 38 99 96 55 41 5 5 30 3 70 7 0 0 0 0 5 0
4 55 98 70 78 13 93 100 100 100 100 100 100 100 100 100 100 100 100 100 100 70 93 98 100 54 92 66 56 62 28 9 4 2 3 5 4 0 0 0 0 0 0
98 28 97 100 100 99 97 100 100 100 100 100 100 100 100 100 100 100 100 95 77 100 97 63 75 62 30 5 6 3 4 0 5 65 13 31 95 85 4 5 5 5 0
94 100 86 24 74 100 100 100 98 62 90 98 100 100 69 93 21 9 10 5 73 23 5 38 58 19 5 30 22 1 0 4 5 5 10 87 88 84 5 65 13 5 5
100 100 100 100 99 100 100 100 100 100 100 100 87 40 66 99 49 88 100 81 6 25 60 17 5 4 0 0 0 0 0 0 8 63 93 99 5 48 100 40 25 5 7
100 100 100 100 100 100 100 100 100 100 100 100 100 65 100 64 84 100 100 100 100 100 97 50 7 2 0 0 0 0 1 5 5 5 13 86 36 54 10 98 88 12 89